Location: Bastrop State Park
(30.1090°N, 97.2819°W)
Time: 09:29:28
(UTC-05:00)

Daily predictions for brighter satellites

Satellite Brightness Start Highest point End
(mag) Time Altitude Azimuth Time Altitude Azimuth Time Altitude Azimuth
Cosmos 1975 2.8 20:39:59 10° N 20:43:59 81° E 20:47:58 10° S
Cosmos 1812 4.0 20:40:32 10° SSW 20:44:15 46° W 20:47:58 10° N
Cosmos 2237 Rocket 3.1 20:41:31 10° SW 20:47:00 55° WNW 20:52:32 10° N
IUS-1 SRM-2 3.4 20:44:11 10° W 20:48:27 26° SSW 20:50:27 10° SE
Aureole 2 Rocket 3.9 20:46:40 10° SSE 20:49:56 23° ESE 20:53:01 10° NE
ALOS 2.9 20:46:05 10° SE 20:50:22 38° ENE 20:54:41 10° N
deb Chang Zheng 4 4.5 20:53:43 10° NE 20:57:32 29° E 21:01:18 10° SSE
Cosmos 2278 Rocket 2.2 20:55:20 10° NNW 21:01:01 71° ENE 21:06:39 10° SSE
RESURS DK-1 4.5 20:59:19 10° NW 21:02:46 26° WSW 21:06:10 10° SSW
ATLAS CENTAUR R/B 3.9 20:59:24 10° WSW 21:03:47 32° WNW 21:08:17 10° N
Atlas Centaur 2 3.0 20:57:21 10° SW 21:04:14 58° SSE 21:12:22 10° E
BREEZE-M R/B 3.3 21:01:38 10° WNW 21:04:41 56° SW 21:10:21 10° SE
Cosmos 1606 Rocket 3.9 21:01:50 10° N 21:06:05 45° E 21:10:16 10° SSE
CZ-2D R/B 3.2 21:04:11 10° SSE 21:08:04 76° ENE 21:11:58 10° N
H-2A R/B 3.4 21:05:22 11° ESE 21:08:23 23° ENE 21:11:46 10° NNE
SL-16 R/B 2.4 21:09:09 10° SSW 21:14:47 77° WNW 21:20:28 10° NNE
Cosmos 1666 4.2 21:15:53 10° NNE 21:18:52 21° ENE 21:20:23 17° ESE
Cosmos 1939 Rocket 4.4 21:17:36 15° ESE 21:19:43 22° ENE 21:22:56 10° NNE
Cosmos 1500 3.6 21:16:25 10° NNW 21:20:17 65° W 21:24:08 10° S
COSMOS 2455 3.5 21:17:22 10° SSE 21:22:32 31° ESE 21:27:45 10° NE
Milstar 3 Cent rocket 2.7 21:15:15 10° W 21:24:01 62° SSW 21:27:55 18° ESE
ATLAS 3B CENTAUR R/B 4.1 21:22:44 10° SW 21:25:49 17° S 21:30:12 11° SSE
Resurs 01 Rocket 4.3 21:23:25 10° SW 21:26:18 17° W 21:29:11 10° NW
Cosmos 1025 Rocket 4.3 21:25:16 10° SSW 21:29:26 44° W 21:33:38 10° N
ATLAS 3B R/B 3.9 21:26:35 10° SSE 21:32:25 24° ESE 21:38:13 10° ENE
Cosmos 1743 2.7 21:29:03 10° N 21:32:53 84° W 21:36:18 13° S
Cosmos 2228 3.7 21:28:59 10° NNE 21:33:03 36° E 21:35:07 23° SE
Meteor 1-23 Rocket 4.3 21:29:41 10° S 21:35:18 86° W 21:41:01 10° N
Cosmos 1892 Rocket 4.3 21:33:34 10° SSW 21:37:53 54° W 21:42:15 10° N
Cosmos 2098 Rocket 4.5 21:35:13 10° NNW 21:38:35 34° W 21:42:43 10° SSW
ERS-1 Rocket 2.9 21:36:58 17° SSE 21:40:52 74° ENE 21:45:53 10° N
Centaur D AC-28 1.9 21:36:51 10° W 21:41:07 49° SSW 21:42:47 27° SE
USA 186 3.3 21:39:40 10° SSW 21:42:22 30° W 21:44:55 10° NW
Cosmos 1603 3.6 21:38:12 10° S 21:43:45 67° ESE 21:49:19 10° NNE
Envisat 3.6 21:42:41 25° ESE 21:45:01 39° ENE 21:49:42 10° N
SJ-11-01 4.2 21:42:38 21° SSE 21:45:44 75° ENE 21:50:23 10° N
Abrixas rocket 4.2 21:47:37 10° NNW 21:50:19 21° NNE 21:51:25 18° ENE
Nimbus 7 Rocket 4.3 21:44:34 10° NNE 21:50:32 80° ESE 21:56:25 10° S
Okean 2 4.2 21:47:16 10° SSW 21:51:20 52° W 21:55:26 10° N
Cosmos 1110 Rocket 4.2 21:48:00 10° NNW 21:53:15 70° WSW 21:56:56 20° S
Meteor 2-9 Rocket 4.2 21:48:58 10° N 21:54:43 76° E 21:58:25 23° SSE
Delta 168 3.3 21:57:48 10° WSW 22:01:18 43° S 22:01:44 41° SSE
YAOGAN 6 4.4 22:02:20 19° ENE 22:02:20 19° ENE 22:04:33 10° NNE
ISS -2.8 22:00:52 10° SW 22:04:04 58° NW 22:07:18 10° NE
OTV 4 3.0 22:03:21 10° WSW 22:04:31 13° SW 22:04:31 13° SW
Cosmos 2297 4.1 21:59:20 10° NNW 22:04:58 62° WSW 22:08:32 23° S
Tsikada Rocket 4.0 22:00:37 15° S 22:06:07 79° E 22:12:31 10° N
CZ-2C R/B 2.9 22:06:30 19° WSW 22:06:45 19° W 22:08:31 10° NW
UNK 4.2 22:02:12 10° NNE 22:07:42 71° ESE 22:11:46 20° S
Cosmos 1943 3.6 22:07:21 37° SE 22:08:20 40° ESE 22:13:36 10° NE
Cosmos 1513 Rocket 4.4 22:03:46 10° N 22:10:03 90° ESE 22:13:42 26° S
Timation 1 Rocket 4.5 22:05:20 10° NNW 22:11:16 60° ENE 22:13:19 39° SE
CZ-4 R/B 4.3 22:10:43 10° NNE 22:15:27 42° E 22:15:27 42° E
SPOT 5 2.5 22:15:35 55° SE 22:16:25 72° ENE 22:20:46 10° N
MetOp-A 4.3 22:16:40 44° ESE 22:17:59 56° ENE 22:23:13 10° N
Cosmos 1461 3.2 22:14:33 10° NNW 22:18:37 47° ENE 22:18:39 47° ENE
CZ-4 SHROUD 3.7 22:19:33 59° NNW 22:19:33 59° NNW 22:22:12 10° NNW
Cosmos 1602 Rocket 4.4 22:17:41 17° SSW 22:20:55 51° W 22:25:17 10° N
Cosmos 2285 Rocket 4.5 22:16:49 10° NNW 22:22:59 57° WSW 22:26:36 25° S
Cosmos 1825 Rocket 4.2 22:26:46 43° ENE 22:26:46 43° ENE 22:30:18 10° NNE
H-2A R/B 3.9 22:28:49 16° ENE 22:28:49 16° ENE 22:31:17 10° NNE
SPOT 1/Viking Rocket 3.6 22:36:21 58° E 22:36:39 59° ENE 22:41:42 10° N
Cosmos 1812 Rocket 3.5 22:33:12 10° N 22:37:36 83° W 22:37:38 83° WSW
Terra 3.7 22:39:33 17° NE 22:39:33 17° NE 22:41:47 10° NNE
Cosmos 1190 Rocket 3.9 22:40:31 67° E 22:40:31 67° E 22:45:41 10° NNE
USA 245 4.3 22:43:14 61° SE 22:44:15 76° ENE 22:49:51 10° N
H-2A R/B 4.1 22:42:31 16° SW 22:44:16 21° W 22:47:31 10° NW
Geosat 3.8 22:39:27 10° NNE 22:44:24 76° E 22:44:24 76° E
SeaSat 1 2.4 22:47:09 68° SW 22:47:29 71° WSW 22:52:25 10° NNW
ARGOS 3.1 22:52:05 67° ENE 22:52:05 67° ENE 22:57:27 10° N
Cosmos 1634 Rocket 3.9 22:47:08 10° N 22:53:16 67° E 22:53:37 65° ESE
Atlas Centaur 2 2.9 22:46:12 10° W 22:54:04 89° S 22:58:15 35° E
Cosmos 2369 Rocket 2.9 22:53:21 10° N 22:58:16 41° NE 22:58:16 41° NE
NOAA 11 4.1 23:04:33 76° NNE 23:04:33 76° NNE 23:09:40 10° N
Cosmos 489 Rocket 4.3 23:04:43 74° S 23:05:21 88° ESE 23:11:44 10° NNE
COSMOS 2455 4.5 23:03:04 10° WSW 23:08:20 31° WNW 23:13:37 10° N
Cosmos 2279 Rocket 4.2 23:11:39 10° N 23:17:07 56° NE 23:17:07 56° NE
ATLAS 3B R/B 3.4 23:15:06 10° SW 23:22:40 59° WNW 23:30:11 10° NNE
Meteor 1-22 Rocket 4.4 23:17:25 10° N 23:22:21 70° N 23:22:21 70° N
Cosmos 407 Rocket 4.3 23:29:34 49° WNW 23:29:34 49° WNW 23:34:23 10° N
USA 234 3.1 23:33:17 85° W 23:33:17 85° W 23:39:45 10° NW
Lacrosse 4 Rocket 3.7 23:35:28 22° NNW 23:35:28 22° NNW 23:37:19 10° N
